Wind_Speed
52 42 38 30 33 41 51 58 61 62 63 57 58 56 58 65 69 72 72 72 72 70 69 67 67 69 72 76 76 77 79 82 82 82 81 79 75 75 73 73 72 70 69 66
52 50 39 35 33 39 50 58 62 65 63 60 61 57 58 61 65 68 71 74 70 64 61 60 62 65 68 73 76 76 77 78 79 81 81 77 76 74 72 71 70 69 65 62
54 51 44 41 37 37 48 56 64 66 66 64 64 62 61 67 71 68 68 68 65 66 64 62 60 63 64 65 70 75 76 77 77 76 77 74 72 70 69 70 68 63 60 61
54 56 53 42 44 41 45 53 63 67 69 68 65 64 68 72 68 67 71 72 69 68 66 65 61 60 63 63 66 68 73 74 74 76 73 71 70 69 70 68 62 61 61 60
56 56 55 55 43 46 47 50 58 68 71 70 71 67 74 77 72 70 70 76 78 78 72 67 66 62 62 62 63 66 67 71 72 74 75 71 69 69 68 64 63 63 62 60
60 57 56 56 55 50 49 52 54 62 70 73 77 73 75 79 77 75 71 73 74 77 75 74 70 65 64 64 62 64 65 65 67 70 73 73 71 70 68 68 67 65 63 61
62 60 57 57 60 60 56 50 55 56 59 67 77 82 83 81 81 76 75 75 77 74 75 73 71 69 65 66 65 67 64 66 67 66 68 72 73 69 70 69 66 63 64 62
62 61 60 63 64 65 63 61 59 60 60 59 65 77 86 89 84 82 78 73 78 79 77 76 76 73 70 69 67 66 66 65 70 68 69 68 70 73 70 71 69 66 66 63
65 64 64 64 67 69 70 69 71 63 53 60 61 69 80 87 87 84 86 84 78 83 84 82 78 78 75 72 70 67 70 68 69 73 72 71 69 69 73 74 71 70 66 65
65 65 66 67 70 73 74 74 75 76 67 59 56 67 84 76 81 88 90 91 90 84 82 88 83 83 81 79 73 71 68 70 71 73 75 72 71 72 73 71 69 68 67 64
68 67 67 68 72 75 76 75 75 78 74 71 62 68 76 79 79 84 92 95 95 93 88 85 89 89 87 84 81 75 72 69 72 74 76 76 72 73 72 70 69 68 67 64
72 72 69 73 79 76 75 76 75 73 70 69 72 71 74 81 85 85 89 91 98 98 97 94 90 89 85 83 83 82 77 73 73 76 76 74 74 74 73 70 69 68 66 63
78 77 73 72 78 78 75 68 70 71 67 65 71 61 73 78 82 85 86 91 96 101 101 100 98 95 91 85 83 83 81 78 75 77 78 77 75 75 75 73 71 70 68 64
81 79 79 77 77 77 74 67 66 67 64 66 65 63 72 77 82 87 88 90 96 99 103 105 102 100 97 91 86 84 84 83 79 77 80 80 77 77 77 76 73 72 70 67
82 82 82 79 78 76 70 66 64 62 63 68 58 69 68 79 82 85 87 86 90 97 100 100 102 100 98 97 94 89 85 85 84 80 78 84 82 79 77 77 76 72 71 70
83 82 81 75 81 79 67 60 68 69 69 68 64 58 72 84 84 83 86 85 88 94 98 102 98 99 101 98 98 95 90 86 86 85 81 81 86 82 79 79 78 76 73 73
81 80 79 69 80 77 51 63 73 72 70 70 65 60 79 80 82 82 85 86 87 93 97 100 102 97 97 101 99 99 97 93 90 88 87 82 83 86 82 79 79 78 76 74
76 77 78 71 76 67 57 59 66 74 74 76 68 61 75 80 83 86 88 85 86 91 97 98 101 101 97 97 100 99 97 96 94 94 92 88 84 86 87 83 79 77 76 77
76 74 75 71 72 61 47 62 74 80 75 75 70 68 78 79 87 84 85 86 87 92 96 97 100 103 99 97 96 98 99 95 94 96 95 92 88 85 84 84 84 80 79 80
74 76 75 71 70 62 48 59 80 81 73 73 82 75 75 82 86 84 89 90 92 93 93 97 99 102 100 98 96 94 99 101 96 96 97 94 90 88 85 83 83 84 84 82
69 74 74 71 71 59 52 62 81 77 65 82 78 74 76 76 72 77 86 88 90 94 94 95 99 101 101 99 96 95 95 99 102 98 98 96 94 91 90 87 84 82 83 83
69 69 68 65 61 51 58 61 63 65 71 74 72 66 71 73 72 69 75 87 89 89 94 95 98 101 102 101 96 95 95 94 99 103 99 98 96 95 92 91 89 86 84 82
67 64 56 58 53 50 51 50 53 54 56 58 60 64 69 68 69 69 71 80 86 87 90 95 95 99 101 100 99 94 96 94 92 98 102 99 99 96 95 91 89 88 85 83
61 58 58 50 50 46 48 52 52 53 52 54 57 61 63 62 63 66 68 73 81 85 87 91 94 97 100 99 99 95 95 96 92 90 97 101 99 98 96 94 91 88 85 83
49 55 48 47 47 42 48 48 45 42 43 49 51 53 54 58 58 64 62 66 73 81 83 87 91 94 96 98 99 98 92 97 95 91 89 95 100 98 98 94 93 88 89 88
43 45 44 45 42 39 45 41 37 39 42 43 43 46 49 50 53 56 57 59 65 73 82 82 86 90 93 92 96 95 93 93 97 93 89 87 91 100 99 96 93 92 90 87
Wind_Direction
307 306 302 279 263 241 233 232 232 236 238 237 233 228 233 238 237 232 232 234 233 234 240 240 239 238 236 235 234 233 234 236 238 238 240 243 245 247 249 251 254 255 256 258
300 303 294 290 263 250 238 232 233 237 239 236 237 234 235 237 238 237 237 233 232 233 243 247 242 240 238 236 235 234 234 236 237 239 239 242 244 245 248 249 250 252 254 255
294 295 293 282 278 253 246 238 235 236 238 237 236 236 236 236 236 238 232 236 233 233 234 238 238 238 238 239 237 236 234 235 237 238 238 238 241 243 244 244 247 251 253 252
291 290 289 285 271 269 251 244 239 236 239 239 236 232 237 240 236 238 235 232 233 232 232 233 240 240 239 239 237 237 236 235 236 237 236 236 237 239 241 243 245 246 247 247
288 285 285 285 276 264 260 251 242 240 240 239 241 232 240 239 241 242 238 235 233 233 231 232 234 240 239 238 238 235 235 236 234 236 235 233 234 235 238 241 241 243 243 244
287 285 282 281 280 274 259 255 253 245 241 239 241 239 235 242 240 239 241 239 236 236 234 234 233 233 237 236 237 237 234 234 235 235 234 232 232 235 235 239 240 241 242 243
285 284 281 278 276 276 273 261 253 252 245 242 240 241 240 236 240 240 240 237 234 233 233 233 232 230 233 235 233 235 235 232 233 235 235 233 230 233 234 235 237 237 240 242
283 281 280 278 276 274 271 272 264 252 249 246 244 242 242 239 237 239 240 239 234 233 233 233 233 228 232 233 234 231 234 233 231 232 235 233 232 232 235 235 237 237 239 242
282 281 281 278 275 275 275 275 274 271 258 245 247 248 245 241 239 236 236 239 236 233 231 232 230 230 229 230 233 233 229 233 232 231 234 232 231 231 233 235 235 237 238 241
284 283 281 277 275 274 272 273 273 273 272 264 245 241 249 243 241 240 236 234 236 235 233 231 231 230 231 233 230 231 231 229 230 230 233 232 231 232 234 234 235 237 238 239
285 284 283 281 278 275 274 273 271 268 266 263 255 246 240 242 241 237 238 236 234 234 233 232 232 232 230 232 232 230 229 229 228 230 231 232 231 232 233 234 235 235 237 238
289 285 284 282 281 278 275 274 273 269 265 256 249 243 244 242 240 238 235 236 236 233 232 232 232 230 231 231 229 230 228 228 228 228 230 231 231 232 232 232 233 234 234 236
288 288 286 283 282 281 278 273 269 266 260 254 249 243 246 243 241 239 236 234 234 235 232 231 231 231 228 228 227 227 228 226 227 228 229 230 230 231 232 231 232 233 233 234
289 289 286 285 283 282 282 275 269 266 259 254 252 245 245 242 239 239 236 232 232 233 234 231 230 230 229 227 226 226 227 226 225 228 228 229 228 229 230 230 230 232 232 233
288 288 286 285 284 281 276 276 272 266 260 252 246 242 242 241 237 236 237 232 232 233 235 234 231 231 229 228 226 225 226 227 225 226 228 229 228 228 229 230 230 231 233 233
287 286 285 284 283 279 275 279 278 269 256 248 240 239 238 239 238 235 236 233 231 231 232 235 232 230 229 228 227 225 224 224 225 225 226 229 228 228 229 231 231 231 233 234
286 284 282 279 280 277 278 274 267 263 261 254 243 233 240 237 238 237 235 232 229 229 230 231 233 230 228 228 227 226 224 225 226 226 226 228 230 228 227 229 231 232 232 234
284 284 281 278 275 275 271 266 269 263 257 256 248 238 238 238 236 232 233 232 230 228 229 229 231 231 227 226 226 226 225 225 225 225 225 227 229 230 228 226 229 231 233 235
285 281 279 276 273 270 269 262 260 261 257 258 255 245 238 235 236 235 234 233 230 230 229 227 228 232 229 226 224 224 224 223 222 222 224 225 227 229 230 229 229 230 232 234
287 285 281 278 273 270 261 264 263 257 256 259 256 249 246 240 235 234 236 234 230 230 229 228 226 229 231 227 223 221 223 223 222 221 223 224 225 227 229 230 231 231 232 234
282 282 283 281 278 274 269 260 256 262 264 255 256 257 254 252 245 237 236 237 235 231 231 229 227 226 228 229 224 219 220 223 222 221 221 223 223 225 228 230 231 232 233 235
285 282 281 281 284 283 273 268 265 260 259 261 262 259 254 252 249 240 234 234 236 232 230 230 228 225 226 226 226 219 217 220 222 222 221 221 223 225 227 229 232 233 234 236
290 290 291 289 288 284 278 275 270 265 260 258 255 251 249 246 244 241 235 231 233 232 229 229 228 226 225 225 226 221 216 217 221 222 222 221 222 224 227 229 231 233 235 236
291 292 289 290 284 275 269 262 256 254 252 247 248 246 246 245 241 238 236 233 231 231 228 227 227 227 226 224 224 223 217 215 218 221 222 221 221 223 225 227 230 233 235 237
292 289 292 288 280 279 275 275 275 275 272 267 261 253 247 242 237 236 234 233 230 230 228 226 225 227 227 225 223 222 219 215 217 219 222 223 223 222 224 227 229 231 233 236
291 290 295 292 287 278 275 275 268 263 260 254 251 251 249 248 244 241 238 234 230 227 228 226 224 225 228 226 223 222 220 216 217 220 221 222 224 224 223 226 228 230 233 235
Height
10408 10407 10405 10405 10404 10408 10412 10417 10421 10426 10431 10444 10449 10459 10462 10461 10473 10475 10478 10484 10489 10500 10509 10521 10529 10537 10546 10554 10563 10570 10577 10584 10595 10603 10610 10615 10622 10627 10632 10637 10643 10651 10657 10662
10400 10397 10398 10397 10398 10399 10403 10406 10410 10412 10420 10433 10437 10447 10449 10449 10451 10455 10461 10463 10478 10494 10504 10512 10519 10525 10532 10537 10545 10554 10561 10569 10577 10585 10593 10601 10606 10613 10619 10627 10631 10636 10645 10649
10390 10389 10387 10388 10389 10390 10390 10394 10398 10402 10408 10415 10425 10433 10434 10428 10429 10442 10449 10457 10471 10477 10484 10492 10499 10507 10514 10521 10527 10535 10544 10552 10561 10570 10577 10586 10593 10601 10605 10610 10618 10628 10632 10634
10381 10376 10375 10376 10376 10379 10379 10382 10384 10388 10393 10400 10409 10419 10414 10407 10422 10428 10435 10445 10452 10458 10466 10478 10487 10494 10500 10505 10512 10520 10529 10537 10547 10554 10562 10570 10578 10585 10590 10598 10610 10614 10617 10622
10367 10364 10362 10360 10364 10365 10366 10366 10368 10372 10379 10385 10387 10402 10394 10392 10404 10411 10418 10425 10432 10440 10451 10461 10471 10479 10486 10493 10496 10503 10512 10522 10531 10537 10546 10555 10564 10570 10577 10588 10594 10599 10605 10610
10347 10350 10349 10347 10346 10348 10350 10351 10352 10356 10362 10370 10367 10378 10377 10374 10382 10392 10402 10410 10417 10426 10436 10445 10453 10462 10469 10476 10483 10488 10496 10506 10514 10521 10529 10539 10547 10555 10564 10571 10577 10585 10593 10597
10332 10332 10333 10330 10328 10328 10331 10334 10334 10338 10344 10350 10353 10355 10354 10360 10362 10375 10380 10389 10397 10409 10418 10426 10436 10445 10452 10459 10467 10475 10482 10491 10498 10506 10514 10522 10532 10542 10549 10555 10563 10571 10576 10583
10317 10315 10314 10311 10309 10309 10309 10312 10312 10319 10325 10330 10333 10334 10327 10335 10349 10359 10365 10371 10381 10390 10398 10407 10417 10427 10435 10443 10450 10460 10468 10475 10482 10491 10499 10507 10517 10529 10534 10541 10550 10557 10562 10570
10299 10296 10294 10292 10290 10288 10289 10290 10288 10294 10303 10312 10318 10311 10301 10318 10331 10341 10347 10350 10357 10367 10377 10387 10396 10407 10417 10425 10433 10442 10452 10459 10467 10475 10482 10492 10503 10512 10517 10524 10536 10542 10548 10555
10280 10277 10275 10273 10268 10266 10267 10269 10268 10270 10275 10281 10293 10293 10269 10300 10312 10317 10320 10327 10333 10345 10356 10366 10377 10388 10398 10407 10416 10424 10434 10443 10449 10457 10464 10476 10488 10495 10500 10511 10521 10527 10534 10542
10258 10257 10255 10250 10242 10240 10242 10244 10246 10242 10249 10252 10262 10260 10261 10269 10282 10289 10291 10303 10310 10321 10333 10342 10354 10365 10376 10386 10396 10406 10417 10426 10433 10439 10447 10460 10472 10478 10485 10497 10504 10512 10519 10527
10233 10232 10235 10224 10211 10218 10217 10216 10216 10215 10221 10225 10228 10236 10242 10245 10250 10259 10265 10276 10283 10294 10307 10318 10329 10341 10353 10364 10376 10387 10398 10408 10416 10423 10431 10444 10455 10463 10470 10480 10488 10494 10503 10511
10209 10206 10207 10204 10190 10185 10186 10192 10189 10188 10194 10201 10199 10223 10212 10212 10222 10231 10240 10249 10254 10263 10278 10291 10303 10315 10328 10342 10355 10367 10379 10391 10401 10407 10416 10427 10438 10447 10453 10462 10470 10479 10488 10495
10182 10180 10176 10175 10166 10161 10160 10163 10164 10163 10169 10171 10180 10191 10184 10186 10191 10196 10209 10219 10226 10234 10244 10259 10275 10289 10304 10320 10333 10346 10359 10370 10382 10391 10400 10409 10420 10429 10436 10445 10454 10463 10472 10480
10155 10154 10146 10144 10139 10134 10136 10140 10138 10139 10139 10139 10158 10153 10161 10153 10159 10167 10179 10196 10207 10213 10224 10236 10254 10268 10283 10296 10310 10324 10338 10350 10362 10373 10382 10389 10401 10412 10422 10431 10440 10449 10457 10464
10129 10125 10119 10122 10108 10104 10115 10123 10110 10104 10104 10108 10122 10136 10129 10117 10130 10145 10152 10168 10181 10188 10198 10208 10225 10242 10256 10270 10285 10301 10316 10329 10341 10353 10363 10371 10383 10395 10406 10415 10424 10432 10441 10448
10102 10096 10089 10098 10080 10077 10109 10093 10076 10075 10078 10081 10097 10114 10094 10104 10110 10121 10127 10136 10149 10160 10169 10182 10196 10214 10229 10245 10261 10277 10293 10307 10320 10332 10344 10353 10362 10376 10387 10397 10407 10417 10425 10432
10076 10066 10058 10064 10053 10061 10076 10071 10058 10041 10047 10049 10069 10090 10076 10077 10080 10084 10095 10111 10124 10133 10141 10156 10169 10183 10202 10218 10236 10253 10269 10283 10297 10308 10322 10333 10344 10354 10367 10380 10391 10400 10409 10414
10044 10038 10031 10031 10026 10044 10062 10041 10021 10015 10029 10029 10042 10050 10043 10052 10049 10067 10078 10089 10096 10103 10115 10130 10145 10155 10174 10191 10210 10229 10244 10259 10272 10285 10299 10313 10325 10336 10349 10363 10373 10382 10390 10396
10020 10006 10001 10003 10000 10013 10034 10021 9988 9989 10003 10009 9994 10016 10021 10018 10028 10046 10048 10060 10067 10075 10090 10103 10120 10132 10147 10165 10186 10205 10218 10234 10248 10263 10277 10293 10307 10319 10331 10341 10352 10362 10370 10376
9997 9986 9980 9977 9972 9989 9999 9987 9960 9971 9992 9967 9981 9993 9993 9996 10011 10023 10028 10034 10043 10055 10066 10079 10091 10107 10122 10138 10160 10181 10196 10209 10227 10242 10257 10273 10287 10299 10310 10321 10333 10343 10352 10362
9971 9962 9957 9959 9961 9968 9957 9955 9954 9954 9952 9953 9960 9969 9966 9970 9979 9994 10003 10006 10013 10029 10040 10050 10064 10080 10096 10113 10131 10155 10172 10188 10203 10220 10236 10252 10266 10280 10291 10303 10314 10324 10335 10345
9945 9939 9944 9937 9939 9939 9934 9932 9930 9930 9931 9933 9935 9934 9933 9943 9953 9965 9975 9981 9990 10003 10015 10024 10039 10055 10071 10090 10108 10128 10149 10165 10181 10196 10213 10230 10245 10260 10272 10284 10295 10306 10317 10328
9929 9925 9919 9919 9913 9912 9907 9901 9901 9901 9904 9905 9907 9909 9911 9923 9930 9935 9947 9958 9966 9975 9989 10001 10016 10029 10046 10065 10085 10105 10127 10146 10160 10176 10191 10209 10224 10240 10252 10264 10276 10288 10300 10310
9919 9905 9906 9899 9893 9895 9888 9887 9890 9894 9894 9893 9893 9893 9896 9899 9909 9911 9923 9934 9945 9955 9965 9980 9995 10010 10023 10043 10062 10082 10104 10126 10141 10157 10172 10189 10204 10220 10233 10247 10258 10270 10279 10287
9900 9895 9891 9882 9878 9877 9872 9874 9877 9875 9872 9872 9873 9875 9880 9886 9892 9898 9907 9914 9925 9935 9944 9961 9976 9992 10003 10022 10043 10064 10084 10106 10123 10138 10154 10170 10185 10199 10213 10228 10239 10250 10260 10270